Weather History for Sturgeon Bay, WI

Change the Weather History Date:

Saturday, July 27, 2013

  Actual Average Record
Temperature  
Mean Temperature 56 °F -  
Max Temperature 60 °F 78 °F 97 °F (1931)
Min Temperature 51 °F 58 °F 44 °F (1907)
Degree Days  
Heating Degree Days 10    
Growing Degree Days 6 (Base 50)    
Moisture  
Dew Point 46 °F    
Average Humidity 74    
Maximum Humidity 94    
Minimum Humidity 55    
Precipitation  
Precipitation 0.05 in - - ()
Sea Level Pressure  
Sea Level Pressure 29.87 in    
Wind  
Wind Speed 11 mph (WNW)    
Max Wind Speed 18 mph    
Max Gust Speed 20 mph    
Visibility 10 miles    
Events      
Averages and records for this station are not official NWS values.
T = Trace of Precipitation, MM = Missing Value Source: NWS Daily Summary

Daily Weather History Graph

Daily Weather History Graph

Search for Another Location

Airport:

Trip Planner

Search our weather history database for the weather conditions in past years. The results will help you decide how hot, cold, wet, or windy it might be!

Date:

Astronomy

Jul. 27, 2013 Rise Set
Actual Time 5:30 AM CDT 8:21 PM CDT
Civil Twilight 4:55 AM CDT 8:55 PM CDT
Nautical Twilight 4:12 AM CDT 9:38 PM CDT
Astronomical Twilight 3:21 AM CDT 10:29 PM CDT
Moon 10:49 PM CDT (7/27) 11:28 AM CDT (7/27)
Length of Visible Light 15h 59m
Length of Day
14h 51m
Waning Gibbous, 70% of the Moon is Illuminated
Jul 27
Waning Gibbous
Jul 29
Last Quarter
Aug 6
New
Aug 14
First Quarter
Aug 20
Full

Hourly Weather History & Observations

Time (CDT) Temp. Dew Point Humidity Pressure Visibility Wind Dir Wind Speed Gust Speed Precip Events Conditions
12:15 AM 55.4 °F 51.8 °F 88% 29.90 in 10.0 mi NNW 13.8 mph 19.6 mph N/A   Overcast
12:35 AM 53.6 °F 50.0 °F 88% 29.90 in 10.0 mi NNW 13.8 mph - N/A   Overcast
12:55 AM 53.6 °F 50.0 °F 88% 29.90 in 10.0 mi NNW 11.5 mph 19.6 mph N/A   Overcast
1:15 AM 53.6 °F 48.2 °F 82% 29.90 in 10.0 mi NNW 13.8 mph 17.3 mph N/A   Overcast
1:35 AM 53.6 °F 48.2 °F 82% 29.90 in 10.0 mi NW 13.8 mph - N/A   Overcast
1:55 AM 51.8 °F 48.2 °F 88% 29.90 in 10.0 mi NNW 13.8 mph - N/A   Overcast
2:15 AM 51.8 °F 46.4 °F 82% 29.90 in 10.0 mi NNW 12.7 mph - N/A   Overcast
2:35 AM 51.8 °F 46.4 °F 82% 29.90 in 10.0 mi NNW 18.4 mph - N/A   Overcast
2:55 AM 51.8 °F 46.4 °F 82% 29.90 in 10.0 mi NNW 16.1 mph 19.6 mph N/A   Overcast
3:15 AM 51.8 °F 46.4 °F 82% 29.90 in 10.0 mi NNW 15.0 mph 18.4 mph N/A   Overcast
3:35 AM 51.8 °F 46.4 °F 82% 29.91 in 10.0 mi NNW 9.2 mph - N/A   Overcast
3:55 AM 51.8 °F 46.4 °F 82% 29.91 in 10.0 mi NNW 10.4 mph - N/A   Overcast
4:15 AM 51.8 °F 46.4 °F 82% 29.90 in 10.0 mi NNW 12.7 mph - N/A   Overcast
4:35 AM 51.8 °F 44.6 °F 76% 29.91 in 10.0 mi NNW 9.2 mph - N/A   Overcast
4:55 AM 51.8 °F 46.4 °F 82% 29.91 in 10.0 mi NW 9.2 mph - N/A   Overcast
5:15 AM 51.8 °F 44.6 °F 76% 29.91 in 10.0 mi NW 10.4 mph - N/A   Overcast
5:35 AM 51.8 °F 44.6 °F 76% 29.91 in 10.0 mi NW 8.1 mph - N/A   Overcast
5:55 AM 51.8 °F 44.6 °F 76% 29.92 in 10.0 mi NW 9.2 mph - N/A   Overcast
6:15 AM 51.8 °F 44.6 °F 76% 29.92 in 10.0 mi NW 8.1 mph - N/A   Overcast
6:35 AM 51.8 °F 44.6 °F 76% 29.92 in 10.0 mi NW 9.2 mph - N/A   Overcast
6:55 AM 51.8 °F 44.6 °F 76% 29.91 in 10.0 mi NW 6.9 mph - N/A   Overcast
7:15 AM 51.8 °F 44.6 °F 76% 29.91 in 10.0 mi NW 6.9 mph - N/A   Overcast
7:35 AM 51.8 °F 44.6 °F 76% 29.91 in 10.0 mi WNW 9.2 mph - N/A   Overcast
7:55 AM 51.8 °F 44.6 °F 76% 29.91 in 10.0 mi NW 12.7 mph - N/A   Overcast
8:15 AM 51.8 °F 42.8 °F 71% 29.90 in 10.0 mi NW 11.5 mph 17.3 mph N/A   Overcast
8:35 AM 51.8 °F 42.8 °F 71% 29.90 in 10.0 mi NW 10.4 mph - N/A   Overcast
8:55 AM 51.8 °F 44.6 °F 76% 29.90 in 10.0 mi WNW 9.2 mph - N/A   Overcast
9:15 AM 53.6 °F 42.8 °F 67% 29.90 in 10.0 mi WNW 11.5 mph - N/A   Overcast
9:35 AM 53.6 °F 44.6 °F 72% 29.90 in 10.0 mi NW 11.5 mph 16.1 mph N/A   Overcast
9:55 AM 53.6 °F 42.8 °F 67% 29.89 in 10.0 mi WNW 9.2 mph - N/A   Overcast
10:15 AM 55.4 °F 44.6 °F 67% 29.89 in 10.0 mi NW 10.4 mph - N/A   Overcast
10:35 AM 53.6 °F 44.6 °F 72% 29.88 in 10.0 mi WNW 12.7 mph - N/A   Overcast
10:55 AM 53.6 °F 44.6 °F 72% 29.88 in 10.0 mi NW 13.8 mph 17.3 mph N/A   Overcast
11:15 AM 55.4 °F 44.6 °F 67% 29.88 in 10.0 mi WNW 13.8 mph - N/A   Mostly Cloudy
11:35 AM 55.4 °F 44.6 °F 67% 29.88 in 10.0 mi WNW 11.5 mph 16.1 mph N/A   Mostly Cloudy
11:55 AM 55.4 °F 44.6 °F 67% 29.87 in 10.0 mi WNW 9.2 mph 18.4 mph N/A   Overcast
12:15 PM 55.4 °F 42.8 °F 63% 29.87 in 10.0 mi West 8.1 mph - N/A   Overcast
12:35 PM 57.2 °F 42.8 °F 59% 29.87 in 10.0 mi West 10.4 mph - N/A   Overcast
12:55 PM 57.2 °F 44.6 °F 63% 29.87 in 10.0 mi West 8.1 mph - N/A   Mostly Cloudy
1:15 PM 57.2 °F 42.8 °F 59% 29.87 in 10.0 mi West 10.4 mph - N/A   Overcast
1:35 PM 59.0 °F 44.6 °F 59% 29.86 in 10.0 mi NW 10.4 mph 18.4 mph N/A   Overcast
1:55 PM 57.2 °F 44.6 °F 63% 29.86 in 10.0 mi West 8.1 mph - N/A   Overcast
2:15 PM 59.0 °F 44.6 °F 59% 29.86 in 10.0 mi West 6.9 mph - N/A   Overcast
2:35 PM 59.0 °F 44.6 °F 59% 29.86 in 10.0 mi West 8.1 mph - N/A   Overcast
2:55 PM 60.8 °F 44.6 °F 55% 29.85 in 10.0 mi West 9.2 mph - N/A   Overcast
3:15 PM 59.0 °F 44.6 °F 59% 29.85 in 10.0 mi West 6.9 mph - N/A   Overcast
3:35 PM 59.0 °F 42.8 °F 55% 29.85 in 10.0 mi West 8.1 mph - N/A   Overcast
3:55 PM 59.0 °F 44.6 °F 59% 29.85 in 10.0 mi West 8.1 mph - N/A   Overcast
4:15 PM 59.0 °F 44.6 °F 59% 29.84 in 10.0 mi West 8.1 mph - N/A   Overcast
4:35 PM 57.2 °F 44.6 °F 63% 29.84 in 10.0 mi WSW 8.1 mph - N/A   Overcast
4:55 PM 57.2 °F 44.6 °F 63% 29.84 in 10.0 mi WSW 5.8 mph - N/A   Overcast
5:15 PM 57.2 °F 46.4 °F 67% 29.83 in 10.0 mi West 5.8 mph - N/A   Overcast
5:35 PM 59.0 °F 46.4 °F 63% 29.83 in 10.0 mi WNW 6.9 mph - N/A   Overcast
5:55 PM 59.0 °F 46.4 °F 63% 29.83 in 10.0 mi NW 8.1 mph - N/A   Overcast
6:15 PM 59.0 °F 46.4 °F 63% 29.83 in 10.0 mi West 5.8 mph - N/A   Overcast
6:35 PM 59.0 °F 46.4 °F 63% 29.84 in 10.0 mi West 5.8 mph - N/A   Overcast
6:55 PM 59.0 °F 46.4 °F 63% 29.84 in 10.0 mi West 4.6 mph - N/A   Overcast
7:15 PM 59.0 °F 46.4 °F 63% 29.84 in 10.0 mi West 3.5 mph - N/A   Overcast
7:35 PM 57.2 °F 48.2 °F 72% 29.85 in 10.0 mi West 5.8 mph - N/A   Overcast
7:55 PM 53.6 °F 48.2 °F 82% 29.84 in 7.0 mi WSW 5.8 mph - 0.04 in   Overcast
8:15 PM 53.6 °F 50.0 °F 88% 29.84 in 10.0 mi South 5.8 mph - 0.01 in   Overcast
8:35 PM 53.6 °F 50.0 °F 88% 29.84 in 10.0 mi WSW 3.5 mph - 0.01 in   Overcast
8:55 PM 53.6 °F 50.0 °F 88% 29.84 in 10.0 mi West 5.8 mph - 0.01 in   Overcast
9:15 PM 53.6 °F 48.2 °F 82% 29.83 in 10.0 mi WSW 6.9 mph - N/A   Overcast
9:35 PM 53.6 °F 50.0 °F 88% 29.83 in 10.0 mi SW 3.5 mph - N/A   Overcast
9:55 PM 53.6 °F 51.8 °F 94% 29.83 in 10.0 mi South 3.5 mph - N/A   Overcast
10:15 PM 53.6 °F 50.0 °F 88% 29.83 in 10.0 mi SSW 3.5 mph - N/A   Overcast
10:35 PM 53.6 °F 50.0 °F 88% 29.82 in 10.0 mi SSW 5.8 mph - N/A   Overcast
10:55 PM 53.6 °F 50.0 °F 88% 29.82 in 10.0 mi WSW 5.8 mph - N/A   Overcast
11:15 PM 53.6 °F 50.0 °F 88% 29.82 in 10.0 mi West 4.6 mph - N/A   Overcast
11:35 PM 53.6 °F 50.0 °F 88% 29.82 in 10.0 mi WSW 4.6 mph - N/A   Overcast
11:55 PM 53.6 °F 50.0 °F 88% 29.82 in 10.0 mi WSW 4.6 mph - N/A   Overcast